Regional Weather Roundup
Issued by NWS

Home | Current Version | Previous Version | Graphics & Text | Print | Product List | Glossary On
Versions: 1 2 3 4 5 6 7 8 9 10 11 12 13 14 15 16 17 18 19 20 21 22 23 24 25 26 27 28 29 30 31 32 33 34 35 36 37 38 39 40 41 42 43 44 45 46 47 48 49 50
000
ASUS43 KMKX 211511
RWRWI

WISCONSIN REGIONAL WEATHER ROUNDUP
NATIONAL WEATHER SERVICE MILWAUKEE/SULLIVAN WI
1000 AM CDT TUE APR 21 2015

NOTE: "FAIR" INDICATES FEW OR NO CLOUDS BELOW 12,000 FEET WITH NO
SIGNIFICANT WEATHER AND/OR OBSTRUCTIONS TO VISIBILITY.

WIZ001-002-006>008-014>016-023>028-211600-
NORTHWEST WISCONSIN

CITY           SKY/WX    TMP DP  RH WIND       PRES   REMARKS
SUPERIOR ARPT  PTSUNNY   36  26  67 NW21G30   29.44R WCI  25
ASHLAND        CLOUDY    36  31  82 W13G25    29.40R WCI  27
HAYWARD        FLURRIES  33  28  81 W13G20    29.42S WCI  24
SIREN          LGT SNOW  35  29  79 NW15G21   29.48S WCI  25
CUMBERLAND     LGT SNOW  32  28  86 W21       29.47R WCI  20
RICE LAKE      FLURRIES  34  29  80 W13G20    29.49R WCI  25
CHETEK         CLOUDY    35  30  82 W12G21    29.47S WCI  27
LADYSMITH      CLOUDY    35  30  84 W17G24    29.45S WCI  24
EAU CLAIRE     CLOUDY    36  27  69 W15G26    29.50R WCI  26
MENOMONIE      PTSUNNY   38  27  65 W21G28    29.51S WCI  27
NEW RICHMOND   CLOUDY    35  29  79 NW14      29.52R WCI  26
OSCEOLA        FLURRIES  36  29  74 W18G25    29.55R WCI  26
$$

WIZ003>005-009-010-017-018-211600-
NORTH CENTRAL WISCONSIN

CITY           SKY/WX    TMP DP  RH WIND       PRES   REMARKS
MANITOWISH WTR LGT SNOW  32  29  89 W15G22    29.34S WCI  21
ARBOR VITAE    LGT SNOW  34  30  85 W10G21    29.35R WCI  26
WOODRUFF       LGT SNOW  34  30  85 W10G21    29.35R WCI  26
RHINELANDER    LGT SNOW  34  27  75 W15G25    29.36S WCI  24
EAGLE RIVER    LGT SNOW  33  29  84 W12G17    29.33R WCI  25
LAND O LAKES   LGT SNOW  33  30  90 W10G16    29.33R VSB 1   WCI  25
PHILLIPS       LGT SNOW  32  29  88 W7G16     29.38S WCI  26
TOMAHAWK       LGT SNOW  33  28  79 W13G22    29.39R WCI  24
MEDFORD        CLOUDY    33  29  86 W16G25    29.42S FOG     WCI  22
MERRILL        CLOUDY    34  29  80 W16G23    29.40S WCI  24
$$

WIZ029-030-035-036-043>047-211600-
CENTRAL WISCONSIN

CITY           SKY/WX    TMP DP  RH WIND       PRES   REMARKS
WAUSAU         PTSUNNY   36  26  67 W23G31    29.40S WCI  24
MOSINEE        CLOUDY    34  30  86 W17G23    29.44R WCI  23
MARSHFIELD     FLURRIES  35  28  75 W20G28    29.45R WCI  24
STEVENS POINT  CLOUDY    34  29  79 W12G24    29.45R WCI  26
WAUPACA        CLOUDY    40  29  64 W14G24    29.46S WCI  32
WAUTOMA        LGT RAIN  38  30  73 W14       29.49R WCI  30
WISC RAPIDS    LGT RAIN  37  26  64 W14G25    29.48S WCI  28
CAMP DOUGLAS   FLURRIES  36  36 100 W21G29    29.51R WCI  24
$$

WIZ011>013-019>022-031-037>040-048>050-211600-
NORTHEAST WISCONSIN

CITY           SKY/WX    TMP DP  RH WIND       PRES   REMARKS
ANTIGO         CLOUDY    34  27  77 W20G25    29.38R WCI  22
SHAWANO        CLOUDY    40  31  67 W16G28    29.41S WCI  32
OCONTO         NOT AVBL
STURGEON BAY   CLOUDY    37  28  70 W22       29.41R WCI  27
GREEN BAY      CLOUDY    40  31  70 W22       29.43S WCI  30
MANITOWOC      LGT RAIN  39  33  79 W18G25    29.45S WCI  30
APPLETON       PTSUNNY   37  28  70 W20G29    29.45S WCI  27
CLINTONVILLE   CLOUDY    37  30  75 W13G23    29.42S WCI  29
OSHKOSH        LGT RAIN  38  29  70 W12       29.46S WCI  30
$$

WIZ032>034-041-042-053>061-211600-
SOUTHWEST WISCONSIN

CITY           SKY/WX    TMP DP  RH WIND       PRES   REMARKS
LA CROSSE      CLOUDY    39  25  57 W15G24    29.56R WCI  31
SPARTA         CLOUDY    36  29  75 W21       29.54R WCI  25
VIROQUA        CLOUDY    35  30  83 W16G23    29.54R WCI  25
BOSCOBEL       CLOUDY    41  25  53 W17G28    29.59R
PRAIRIE DU CHI CLOUDY    40  26  56 W24G36    29.60S WCI  30
PLATTEVILLE    CLOUDY    40  29  63 W24G38    29.60R WCI  30
$$

WIZ056-057-062-063-064-067-068-211600-
SOUTH CENTRAL WISCONSIN

CITY           SKY/WX    TMP DP  RH WIND       PRES   REMARKS
REEDSBURG      NOT AVBL
BARABOO/DELLS  FLURRIES  36  31  82 W14       29.52S WCI  27
LONE ROCK      CLOUDY    41  26  55 W24G37    29.55S
MINERAL POINT  CLOUDY    41  27  56 W25G39    29.56R
MADISON        CLOUDY    40  27  59 W9        29.53S WCI  34
MIDDLETON      CLOUDY    41  29  62 W20G29    29.54R
WATERTOWN      CLOUDY    37  30  73 W16G26    29.53R WCI  28
MONROE         CLOUDY    39  28  65 W26G44    29.57R WCI  28
JANESVILLE     CLOUDY    43  28  56 W18       29.56S
$$

WIZ051-052-058>065-066-070>072-211600-
SOUTHEAST WISCONSIN

CITY           SKY/WX    TMP DP  RH WIND       PRES   REMARKS
MILWAUKEE      LGT RAIN  41  28  60 W14G28    29.53R
WAUKESHA       CLOUDY    37  27  65 W14G20    29.53R WCI  29
MILWAUKEE/TIMM PTSUNNY   37  32  81 W12G23    29.53  WCI  30
RACINE         CLOUDY    41  25  53 W17G31    29.56R
BURLINGTON     CLOUDY    40  26  56 W15G28    29.55S WCI  32
KENOSHA        CLOUDY    41  28  60 W22G31    29.56R
FOND DU LAC    PTSUNNY   40  30  67 W21G29    29.48R WCI  30
SHEBOYGAN      CLOUDY    39  30  70 W22G29    29.47R WCI  29
WEST BEND      LGT SNOW  34  30  86 W14G24    29.50R WCI  24
JUNEAU         CLOUDY    38  29  70 W17       29.52R WCI  29
$$

LSZ147-162-211600-
LAKE SUPERIOR

STATION/POSITION TIME  TEMP    WIND        PRES    WAVE
                       AIR SEA DIR/SP/G            HT/PER
                 (UTC) (F)     (DEG/KT/KT) (MB)    (FT/S)
DEVILS ISLAND    1500   32     300/ 13/ 15  995.4R
PORT WING        1400   36     280/ 21/ 25  995.9R
SAXON HARBOR     1440   36     270/  9/ 19  994.9R
$$

LMZ867-665-643>646-211600-
LAKE MICHIGAN

STATION/POSITION TIME  TEMP    WIND        PRES    WAVE
                       AIR SEA DIR/SP/G            HT/PER
                 (UTC) (F)     (DEG/KT/KT) (MB)    (FT/S)
CHAMBERS ISLAND  1400   39     230/ 10/ 15  994.9S
NORTHPORT PIER   1400   39     240/ 10/ 17  994.6S
SISTER BAY       1432   42     260/ 17/ 20   N/A
KEWAUNEE LAKESHO 1400   38     270/ 14/ 21  995.6F
SHEBOYGAN LAKESH 1500   39     260/ 21/ 26  998.8R
PORT WASHINGTON  1500   39     290/ 12     1000.3R
MILWAUKEE LAKESH 1400   41     260/ 13/ 17   N/A
KENOSHA   LAKESH 1500   42     270/ 14/ 29 1001.4R
$$

TC  - TEMPERATURE IN CELSIUS
VSB - VISIBILITY IN STATUTE MILES
WCI - WIND CHILL INDEX
HX  - HEAT INDEX



USA.gov is the U.S. government's official web portal to all federal, state and local government web resources and services.